Regional Weather Roundup
Issued by NWS

Home | Current Version | Previous Version | Text Only | Print | Product List | Glossary On
Versions: 1 2 3 4 5 6 7 8 9 10 11 12 13 14 15 16 17 18 19 20 21 22 23 24 25 26 27 28 29 30 31 32 33 34 35 36 37 38 39 40 41 42 43 44 45 46 47 48 49 50
000
ASCA44 KEWX 022320
RWRMX

LATIN AMERICA AND CARIBBEAN REGIONAL WEATHER ROUNDUP
NATIONAL WEATHER SERVICE AUSTIN/SAN ANTONIO TX
600 PM CDT SUN AUG 02 2015

NOTE: "FAIR" INDICATED FEW OR NO CLOUDS BELOW 12,000 FEET WITH NO
SIGNIFICANT WEATHER AND/OR OBSTRUCTIONS TO VISIBILITY.

BAJA CALIFORNIA

CITY           SKY/WX    TMP DP  RH WIND       PRES   REMARKS
LORETO           N/A    N/A N/A N/A MISG        N/A
LA PAZ         PTSUNNY   88  72  58 S16       29.77F HX  94
MEXICALI       SUNNY    108  48  13 S6        29.67F HX 104
S.J. DEL CABO  PTSUNNY   95  66  38 W5        29.77F HX  98
TIJUANA        SUNNY     75  61  60 W14       29.89F

NORTHWESTERN MEXICO

CITY           SKY/WX    TMP DP  RH WIND       PRES   REMARKS
CULIACAN       TSTM      86  86 100 SE12      29.80R VSB 1/2 HX 112
DURANGO        PTSUNNY   81  50  34 NW12      30.11F
GUAYMAS        MOSUNNY   93  82  70 W6        29.70S HX 117
HERMOSILLO     MOSUNNY  106  68  29 S6        29.76F HX 112
CD. JUAREZ     MOSUNNY   97  57  26 CALM      29.91F HX  95
LOS MOCHIS     SUNNY     91  72  52 SW14      29.75F HX  98
OBREGON        MOSUNNY  100  64  30 SW9       29.69F HX 103

NORTHEASTERN MEXICO

CITY           SKY/WX    TMP DP  RH WIND       PRES   REMARKS
CHIHUAHUA      PTSUNNY   91  54  27 S9        30.00F
MATAMOROS      PTSUNNY   90  73  58 E12       29.90S HX  98
MONCLOVA       MOSUNNY  100  59  25 N12       29.84  HX 100
MONTERREY      MOSUNNY   95  54  24 SE13      29.84F HX  93
NUEVO LAREDO   MOSUNNY  106  66  27 CALM      29.80F HX 111
PIEDRAS NEGRAS SUNNY    100  68  34 E7        29.86F HX 106
REYNOSA        MOSUNNY   88  66  48 E14       29.84F HX  90
SALTILLO       SUNNY     84  61  45 N14       30.10S
TORREON        MOSUNNY   95  50  21 N9        29.95F HX  92
CD. VICTORIA   PTSUNNY   90  66  45 E7        29.85F HX  92

WESTERN MEXICO

CITY           SKY/WX    TMP DP  RH WIND       PRES   REMARKS
AGUASCALIENTES MOSUNNY   75  50  41 E5        30.14F
COLIMA         TSTM      73  70  88 NW9       29.95R
DEL BAJIO      PTSUNNY   79  59  50 NE8       30.16F
GUADALAJARA    PTSUNNY   81  63  54 S5        30.04F
MANZANILLO     MOSUNNY   86  79  79 W12       29.78R HX  99
MAZATLAN       MOSUNNY   88  75  66 SW12      29.74F HX  97
P. VALLARTA    CLOUDY    81  77  89 E2        29.80F THUNDER
URUAPAN        CLOUDY    73  66  78 CALM      30.09F
ZACATECAS      MOSUNNY   77  48  36 NE12      30.18F

CENTRAL MEXICO

CITY           SKY/WX    TMP DP  RH WIND       PRES   REMARKS
CUERNAVACA     MOSUNNY   86  50  28 CALM      29.96F
MEXICO CITY    LGT RAIN  66  50  55 E22         N/A
MORELIA        PTSUNNY   77  57  50 S15       30.10F
POZA RICA      MOSUNNY   91  75  59 E9        29.85F HX 102
PUEBLA         SUNNY     77  41  27 SW10      30.20F
QUERETARO      PTSUNNY   79  48  34 NE6       30.15S
S. LUIS POTOSI PTSUNNY   73  52  46 E9        30.15F
TAMPICO        SUNNY     88  73  62 E14       29.85F HX  96
TOLUCA         PTSUNNY   66  52  59 N9        30.28S THUNDER

SOUTHERN MEXICO

CITY           SKY/WX    TMP DP  RH WIND       PRES   REMARKS
ACAPULCO       SUNNY     88  75  66 SW8       29.75F HX  97
B. DE HUATULCO MOSUNNY   90  75  62 SW8       29.84S HX 100
OAXACA         PTSUNNY   72  55  56 NE5       30.08R
P. ESCONDIDO   SUNNY     88  75  66 SW14      29.85S HX  97
VERACRUZ       SUNNY     90  75  62 E10       29.82F HX 100
ZIHUATANEJO    PTSUNNY   90  77  66 SW6       29.78  HX 102

YUCATAN PENINSULA

CITY           SKY/WX    TMP DP  RH WIND       PRES   REMARKS
CAMPECHE       MOSUNNY   88  79  74 N16       29.79S HX 102
CANCUN         PTSUNNY   88  77  70 E8        29.92S HX 100
CHETUMAL       PTSUNNY   88  73  62 SE16      29.87S HX  96
CD. DEL CARMEN MOSUNNY   88  77  70 N13       29.80S HX 100
COZUMEL        MOSUNNY   84  75  74 SE13      29.92R HX  92
MERIDA         MOSUNNY   91  72  52 NE13      29.84R HX  98
MINATITLAN     MOSUNNY   88  68  51 N12       29.77F HX  91
TAPACHULA      MOSUNNY   90  79  70 W14       29.79R HX 105
TUX. GUTIERREZ PTSUNNY   82  68  61 N7        29.83S
VILLAHERMOSA   MOSUNNY   95  68  41 E15       29.81S HX  99

CENTRAL AMERICA

CITY           SKY/WX    TMP DP  RH WIND       PRES   REMARKS
BELIZE CITY    MOSUNNY   88  77  70 E8        29.86S HX 100
MANAGUA        PTCLDY    91  68  46 E18       29.71S HX  95

CARIBBEAN

CITY           SKY/WX    TMP DP  RH WIND       PRES   REMARKS
ARUBA          PTCLDY    82  77  83 NE20      29.80S HX  91
CURACAO        PTCLDY    82  73  74 E14       29.86S
KINGSTON       PTCLDY    86  73  66 SE18      29.86S HX  93
NASSAU         MOSUNNY   84  72  65 S6        29.99R
SAN JUAN       PTCLDY    82  75  78 E14       29.95R
SANTO DOMINGO  HVY RAIN  75  75 100 N7        29.92S
ST. CROIX      PTCLDY    82  75  78 E14       29.96
ST. KITTS      MOCLDY    81  77  89 E10       29.94F
ST. THOMAS     MOCLDY    84  75  74 E9        29.96  HX  92

$$




USA.gov is the U.S. government's official web portal to all federal, state and local government web resources and services.